| time (UTC) | temp C | wind direction | speed KPH | gust KPH | rain 1hr cm | rain 24hr cm | rain mn cm | humidity % | barometer mb |
| 20260510021004 | 16 | 279 | 12.9 | 38.6 | 0.00 | 0.13 | 0.03 | 75 | 1000.6 |
| 20260510020504 | 17 | 278 | 12.9 | 33.8 | 0.00 | 0.13 | 0.03 | 76 | 1000.6 |
| 20260510020004 | 16 | 276 | 14.5 | 35.4 | 0.00 | 0.13 | 0.03 | 76 | 1000.6 |
| 20260510015504 | 16 | 276 | 16.1 | 38.6 | 0.00 | 0.13 | 0.03 | 76 | 1000.6 |
| 20260510015004 | 16 | 280 | 16.1 | 41.8 | 0.00 | 0.13 | 0.03 | 76 | 1000.5 |
| 20260510014504 | 16 | 282 | 16.1 | 41.8 | 0.00 | 0.13 | 0.03 | 76 | 1000.4 |
| 20260510014004 | 16 | 281 | 14.5 | 48.3 | 0.00 | 0.13 | 0.03 | 77 | 1000.4 |
| 20260510013504 | 16 | 280 | 16.1 | 48.3 | 0.00 | 0.13 | 0.03 | 77 | 1000.5 |
| 20260510013219 | 16 | 277 | 17.7 | 48.3 | 0.00 | 0.13 | 0.03 | 76 | 1000.5 |
| 20260510012504 | 16 | 275 | 17.7 | 48.3 | 0.00 | 0.13 | 0.03 | 75 | 1000.6 |
| 20260510012004 | 16 | 276 | 17.7 | 43.5 | 0.00 | 0.13 | 0.03 | 75 | 1000.5 |
| 20260510011504 | 16 | 279 | 16.1 | 41.8 | 0.00 | 0.13 | 0.03 | 75 | 1000.5 |
| 20260510011218 | 16 | 281 | 16.1 | 41.8 | 0.00 | 0.13 | 0.03 | 74 | 1000.5 |
| 20260510010718 | 16 | 279 | 14.5 | 41.8 | 0.00 | 0.13 | 0.03 | 75 | 1000.5 |
| 20260510010004 | 16 | 280 | 12.9 | 45.1 | 0.00 | 0.13 | 0.03 | 76 | 1000.6 |
| 20260510005504 | 16 | 278 | 14.5 | 45.1 | 0.00 | 0.13 | 0.03 | 76 | 1000.6 |
| 20260510005004 | 16 | 283 | 14.5 | 38.6 | 0.00 | 0.13 | 0.03 | 76 | 1000.6 |
| 20260510004718 | 16 | 287 | 14.5 | 43.5 | 0.00 | 0.13 | 0.03 | 77 | 1000.7 |
| 20260510004004 | 16 | 289 | 14.5 | 43.5 | 0.00 | 0.13 | 0.03 | 77 | 1000.7 |
| 20260510003504 | 16 | 282 | 16.1 | 38.6 | 0.00 | 0.13 | 0.03 | 76 | 1000.7 |
| 20260510003004 | 16 | 278 | 14.5 | 41.8 | 0.00 | 0.13 | 0.03 | 77 | 1000.7 |
| 20260510002504 | 16 | 281 | 14.5 | 41.8 | 0.00 | 0.13 | 0.03 | 77 | 1000.8 |
| 20260510002218 | 16 | 285 | 14.5 | 41.8 | 0.00 | 0.13 | 0.03 | 76 | 1000.8 |
| 20260510001504 | 16 | 283 | 14.5 | 40.2 | 0.00 | 0.13 | 0.03 | 75 | 1000.9 |
| 20260510001003 | 16 | 283 | 14.5 | 41.8 | 0.00 | 0.13 | 0.03 | 76 | 1000.9 |
| 20260510000719 | 16 | 280 | 14.5 | 45.1 | 0.00 | 0.13 | 0.03 | 76 | 1000.9 |
| 20260510000004 | 16 | 284 | 16.1 | 49.9 | 0.00 | 0.13 | 0.03 | 77 | 1001.0 |
| 20260509235504 | 16 | 294 | 16.1 | 51.5 | 0.00 | 0.15 | 0.03 | 77 | 1001.0 |
| 20260509235004 | 16 | 294 | 16.1 | 51.5 | 0.00 | 0.15 | 0.03 | 77 | 1001.2 |
| 20260509234504 | 16 | 294 | 16.1 | 43.5 | 0.00 | 0.15 | 0.03 | 77 | 1001.2 |
| 20260509234004 | 16 | 298 | 14.5 | 33.8 | 0.00 | 0.15 | 0.03 | 77 | 1001.3 |
| 20260509233504 | 16 | 309 | 14.5 | 32.2 | 0.00 | 0.15 | 0.03 | 77 | 1001.3 |
| 20260509233004 | 16 | 317 | 14.5 | 40.2 | 0.00 | 0.15 | 0.03 | 77 | 1001.3 |
| 20260509232719 | 16 | 317 | 12.9 | 40.2 | 0.00 | 0.15 | 0.03 | 77 | 1001.3 |
| 20260509232004 | 16 | 305 | 12.9 | 37.0 | 0.00 | 0.15 | 0.03 | 78 | 1001.3 |
| 20260509231504 | 16 | 303 | 14.5 | 37.0 | 0.00 | 0.15 | 0.03 | 78 | 1001.3 |
| 20260509231004 | 16 | 306 | 14.5 | 41.8 | 0.00 | 0.15 | 0.03 | 79 | 1001.3 |
| 20260509230504 | 16 | 307 | 14.5 | 41.8 | 0.00 | 0.15 | 0.03 | 79 | 1001.3 |
| 20260509230005 | 16 | 305 | 14.5 | 37.0 | 0.03 | 0.15 | 0.03 | 81 | 1001.3 |
| 20260509225504 | 16 | 307 | 14.5 | 30.6 | 0.03 | 0.15 | 0.03 | 81 | 1001.4 |
| 20260509225004 | 16 | 309 | 14.5 | 35.4 | 0.03 | 0.15 | 0.03 | 81 | 1001.3 |
| 20260509224505 | 16 | 307 | 14.5 | 40.2 | 0.03 | 0.15 | 0.03 | 81 | 1001.3 |
| 20260509224005 | 16 | 299 | 14.5 | 40.2 | 0.03 | 0.15 | 0.03 | 81 | 1001.3 |
| 20260509223718 | 16 | 300 | 14.5 | 40.2 | 0.03 | 0.15 | 0.03 | 81 | 1001.3 |
| 20260509223004 | 15 | 307 | 12.9 | 33.8 | 0.03 | 0.15 | 0.03 | 83 | 1001.4 |
| 20260509222718 | 15 | 304 | 9.7 | 33.8 | 0.03 | 0.15 | 0.03 | 83 | 1001.4 |
| 20260509222217 | 15 | 300 | 9.7 | 27.4 | 0.03 | 0.15 | 0.03 | 83 | 1001.4 |
| 20260509221504 | 15 | 299 | 8.0 | 22.5 | 0.03 | 0.15 | 0.03 | 84 | 1001.5 |
| 20260509221004 | 15 | 306 | 9.7 | 41.8 | 0.03 | 0.15 | 0.03 | 85 | 1001.5 |
| 20260509220504 | 15 | 312 | 9.7 | 41.8 | 0.03 | 0.15 | 0.03 | 85 | 1001.5 |
| 20260509220004 | 15 | 312 | 9.7 | 25.7 | 0.00 | 0.13 | 0.00 | 85 | 1001.5 |
| 20260509215504 | 15 | 303 | 9.7 | 25.7 | 0.00 | 0.13 | 0.00 | 86 | 1001.5 |
| 20260509215004 | 14 | 302 | 6.4 | 24.1 | 0.00 | 0.13 | 0.00 | 88 | 1001.5 |
| 20260509214504 | 13 | 302 | 4.8 | 22.5 | 0.00 | 0.13 | 0.00 | 90 | 1001.5 |
| 20260509214004 | 13 | 302 | 3.2 | 14.5 | 0.00 | 0.13 | 0.00 | 91 | 1001.6 |
| 20260509213504 | 13 | 312 | 3.2 | 8.0 | 0.00 | 0.13 | 0.00 | 91 | 1001.6 |
| 20260509213004 | 13 | 313 | 3.2 | 9.7 | 0.00 | 0.13 | 0.00 | 91 | 1001.6 |
| 20260509212504 | 13 | 304 | 3.2 | 9.7 | 0.00 | 0.13 | 0.00 | 91 | 1001.6 |
| 20260509212004 | 13 | 299 | 3.2 | 14.5 | 0.00 | 0.13 | 0.00 | 91 | 1001.6 |
| 20260509211504 | 13 | 302 | 3.2 | 14.5 | 0.00 | 0.13 | 0.00 | 91 | 1001.6 |
| 20260509211219 | 13 | 301 | 3.2 | 14.5 | 0.00 | 0.13 | 0.00 | 91 | 1001.6 |
| 20260509210504 | 13 | 305 | 3.2 | 14.5 | 0.00 | 0.13 | 0.00 | 91 | 1001.6 |
| 20260509210004 | 13 | 306 | 3.2 | 14.5 | 0.00 | 0.13 | 0.00 | 91 | 1001.5 |
| 20260509205504 | 13 | 297 | 3.2 | 14.5 | 0.00 | 0.13 | 0.00 | 91 | 1001.6 |
| 20260509205004 | 13 | 297 | 4.8 | 20.9 | 0.00 | 0.13 | 0.00 | 91 | 1001.6 |
| 20260509204504 | 13 | 307 | 4.8 | 20.9 | 0.00 | 0.13 | 0.00 | 91 | 1001.6 |
| 20260509204004 | 13 | 308 | 4.8 | 14.5 | 0.00 | 0.13 | 0.00 | 91 | 1001.5 |
| 20260509203504 | 13 | 305 | 4.8 | 14.5 | 0.00 | 0.13 | 0.00 | 91 | 1001.4 |
| 20260509203003 | 13 | 306 | 4.8 | 14.5 | 0.00 | 0.13 | 0.00 | 91 | 1001.4 |
| 20260509202504 | 13 | 302 | 4.8 | 16.1 | 0.00 | 0.13 | 0.00 | 90 | 1001.3 |
| 20260509202219 | 13 | 298 | 4.8 | 16.1 | 0.00 | 0.13 | 0.00 | 90 | 1001.3 |
| 20260509201718 | 13 | 300 | 4.8 | 16.1 | 0.00 | 0.13 | 0.00 | 90 | 1001.2 |
| 20260509201004 | 12 | 302 | 3.2 | 11.3 | 0.00 | 0.13 | 0.00 | 90 | 1001.1 |
| 20260509200504 | 12 | 294 | 3.2 | 11.3 | 0.00 | 0.13 | 0.00 | 90 | 1001.0 |
| 20260509200004 | 12 | 295 | 3.2 | 11.3 | 0.00 | 0.13 | 0.00 | 90 | 1001.0 |
| 20260509195504 | 12 | 303 | 3.2 | 6.4 | 0.00 | 0.13 | 0.00 | 90 | 1001.0 |
| 20260509195004 | 12 | 300 | 1.6 | 6.4 | 0.00 | 0.13 | 0.00 | 90 | 1001.0 |
| 20260509194717 | 12 | 306 | 3.2 | 11.3 | 0.00 | 0.13 | 0.00 | 90 | 1001.0 |
| 20260509194004 | 12 | 304 | 3.2 | 14.5 | 0.00 | 0.13 | 0.00 | 90 | 1000.9 |
| 20260509193504 | 12 | 307 | 3.2 | 8.0 | 0.00 | 0.13 | 0.00 | 90 | 1000.9 |
| 20260509193004 | 12 | 306 | 3.2 | 8.0 | 0.00 | 0.13 | 0.00 | 90 | 1000.9 |
| 20260509192504 | 12 | 295 | 3.2 | 12.9 | 0.00 | 0.13 | 0.00 | 90 | 1000.9 |
| 20260509192004 | 12 | 292 | 3.2 | 12.9 | 0.00 | 0.13 | 0.00 | 89 | 1000.9 |
| 20260509191504 | 12 | 304 | 4.8 | 12.9 | 0.00 | 0.13 | 0.00 | 89 | 1000.8 |
| 20260509191004 | 12 | 315 | 3.2 | 14.5 | 0.00 | 0.13 | 0.00 | 89 | 1000.7 |
| 20260509190717 | 12 | 313 | 3.2 | 14.5 | 0.00 | 0.13 | 0.00 | 89 | 1000.7 |
| 20260509190004 | 12 | 304 | 3.2 | 11.3 | 0.00 | 0.13 | 0.00 | 89 | 1000.7 |
| 20260509185504 | 12 | 303 | 3.2 | 17.7 | 0.00 | 0.13 | 0.00 | 89 | 1000.7 |
| 20260509185004 | 12 | 306 | 4.8 | 17.7 | 0.00 | 0.13 | 0.00 | 89 | 1000.7 |
| 20260509184504 | 12 | 309 | 4.8 | 19.3 | 0.00 | 0.13 | 0.00 | 89 | 1000.7 |
| 20260509184004 | 12 | 312 | 4.8 | 19.3 | 0.00 | 0.13 | 0.00 | 89 | 1000.7 |
| 20260509183504 | 12 | 318 | 4.8 | 17.7 | 0.00 | 0.13 | 0.00 | 89 | 1000.7 |
| 20260509183004 | 12 | 315 | 3.2 | 12.9 | 0.00 | 0.13 | 0.00 | 89 | 1000.7 |
| 20260509182719 | 12 | 315 | 3.2 | 12.9 | 0.00 | 0.13 | 0.00 | 89 | 1000.7 |
| 20260509182218 | 12 | 305 | 3.2 | 14.5 | 0.00 | 0.13 | 0.00 | 89 | 1000.7 |
| 20260509181504 | 12 | 311 | 3.2 | 14.5 | 0.00 | 0.13 | 0.00 | 89 | 1000.8 |
| 20260509181004 | 12 | 309 | 3.2 | 11.3 | 0.00 | 0.13 | 0.00 | 89 | 1000.8 |
| 20260509180719 | 12 | 311 | 3.2 | 11.3 | 0.00 | 0.13 | 0.00 | 89 | 1000.8 |
| 20260509180004 | 12 | 318 | 3.2 | 11.3 | 0.00 | 0.13 | 0.00 | 89 | 1000.8 |
| 20260509175504 | 12 | 328 | 3.2 | 11.3 | 0.00 | 0.13 | 0.00 | 89 | 1000.8 |
| 20260509175004 | 12 | 326 | 3.2 | 9.7 | 0.00 | 0.13 | 0.00 | 89 | 1000.9 |
| 20260509174504 | 12 | 313 | 3.2 | 14.5 | 0.00 | 0.13 | 0.00 | 89 | 1000.9 |
| 20260509174004 | 12 | 310 | 3.2 | 14.5 | 0.00 | 0.13 | 0.00 | 89 | 1000.9 |
| 20260509173504 | 12 | 305 | 3.2 | 11.3 | 0.00 | 0.13 | 0.00 | 89 | 1000.9 |
| 20260509173004 | 12 | 302 | 3.2 | 9.7 | 0.00 | 0.13 | 0.00 | 89 | 1000.9 |
| 20260509172504 | 12 | 327 | 3.2 | 9.7 | 0.00 | 0.13 | 0.00 | 89 | 1000.8 |
| 20260509172218 | 12 | 328 | 3.2 | 9.7 | 0.00 | 0.13 | 0.00 | 89 | 1000.8 |
| 20260509171504 | 12 | 316 | 3.2 | 9.7 | 0.00 | 0.13 | 0.00 | 89 | 1000.8 |
| 20260509171004 | 12 | 323 | 3.2 | 9.7 | 0.00 | 0.13 | 0.00 | 89 | 1000.8 |
| 20260509170504 | 12 | 318 | 3.2 | 11.3 | 0.00 | 0.13 | 0.00 | 89 | 1000.8 |
| 20260509170218 | 12 | 312 | 3.2 | 11.3 | 0.00 | 0.13 | 0.00 | 89 | 1000.9 |
| 20260509165504 | 12 | 312 | 3.2 | 9.7 | 0.00 | 0.13 | 0.00 | 89 | 1000.8 |
| 20260509165004 | 12 | 320 | 3.2 | 9.7 | 0.00 | 0.13 | 0.00 | 89 | 1000.8 |
| 20260509164504 | 12 | 326 | 3.2 | 16.1 | 0.00 | 0.13 | 0.00 | 90 | 1000.8 |
| 20260509164004 | 12 | 313 | 3.2 | 16.1 | 0.00 | 0.13 | 0.00 | 90 | 1000.8 |
| 20260509163718 | 12 | 310 | 3.2 | 12.9 | 0.00 | 0.13 | 0.00 | 90 | 1000.8 |
| 20260509163004 | 12 | 317 | 3.2 | 12.9 | 0.00 | 0.13 | 0.00 | 90 | 1000.9 |
| 20260509162718 | 11 | 312 | 3.2 | 9.7 | 0.00 | 0.13 | 0.00 | 90 | 1000.9 |
| 20260509162004 | 11 | 324 | 3.2 | 9.7 | 0.00 | 0.13 | 0.00 | 90 | 1000.9 |
| 20260509161504 | 11 | 314 | 3.2 | 9.7 | 0.00 | 0.13 | 0.00 | 90 | 1000.9 |
| 20260509161004 | 11 | 320 | 3.2 | 12.9 | 0.00 | 0.13 | 0.00 | 90 | 1001.0 |
| 20260509160504 | 12 | 325 | 3.2 | 12.9 | 0.00 | 0.13 | 0.00 | 90 | 1000.9 |
| 20260509160004 | 12 | 312 | 3.2 | 11.3 | 0.00 | 0.13 | 0.00 | 90 | 1000.9 |
| 20260509155504 | 12 | 306 | 3.2 | 12.9 | 0.00 | 0.13 | 0.00 | 90 | 1001.0 |
| 20260509155005 | 12 | 308 | 3.2 | 12.9 | 0.00 | 0.13 | 0.00 | 90 | 1001.0 |
| 20260509154504 | 12 | 312 | 3.2 | 16.1 | 0.00 | 0.13 | 0.00 | 90 | 1001.1 |
| 20260509154004 | 12 | 309 | 3.2 | 16.1 | 0.00 | 0.13 | 0.00 | 89 | 1001.1 |
| 20260509153504 | 12 | 315 | 3.2 | 16.1 | 0.00 | 0.13 | 0.00 | 89 | 1001.1 |
| 20260509153004 | 12 | 320 | 4.8 | 11.3 | 0.00 | 0.13 | 0.00 | 89 | 1001.1 |
| 20260509152718 | 12 | 330 | 4.8 | 16.1 | 0.00 | 0.13 | 0.00 | 89 | 1001.1 |
| 20260509152004 | 12 | 325 | 4.8 | 16.1 | 0.00 | 0.13 | 0.00 | 88 | 1001.2 |
| 20260509151504 | 12 | 310 | 3.2 | 14.5 | 0.00 | 0.13 | 0.00 | 88 | 1001.2 |
| 20260509151219 | 12 | 300 | 3.2 | 12.9 | 0.00 | 0.13 | 0.00 | 88 | 1001.3 |
| 20260509150718 | 12 | 307 | 3.2 | 12.9 | 0.00 | 0.13 | 0.00 | 88 | 1001.3 |
| 20260509150004 | 12 | 309 | 3.2 | 11.3 | 0.00 | 0.13 | 0.00 | 88 | 1001.4 |
| 20260509145718 | 12 | 303 | 3.2 | 9.7 | 0.00 | 0.13 | 0.00 | 88 | 1001.4 |
| 20260509145004 | 12 | 314 | 3.2 | 9.7 | 0.00 | 0.13 | 0.00 | 88 | 1001.5 |
| 20260509144504 | 12 | 321 | 3.2 | 11.3 | 0.00 | 0.13 | 0.00 | 88 | 1001.5 |
| 20260509144004 | 12 | 320 | 3.2 | 11.3 | 0.00 | 0.13 | 0.00 | 88 | 1001.5 |
| 20260509143505 | 12 | 310 | 3.2 | 14.5 | 0.00 | 0.13 | 0.00 | 88 | 1001.5 |
| 20260509143004 | 12 | 305 | 3.2 | 14.5 | 0.00 | 0.13 | 0.00 | 88 | 1001.5 |
| 20260509142504 | 12 | 306 | 3.2 | 11.3 | 0.00 | 0.13 | 0.00 | 88 | 1001.4 |
| 20260509142005 | 12 | 306 | 4.8 | 17.7 | 0.00 | 0.13 | 0.00 | 88 | 1001.4 |
| 20260509141504 | 12 | 297 | 4.8 | 17.7 | 0.00 | 0.13 | 0.00 | 88 | 1001.4 |
| 20260509141218 | 12 | 295 | 4.8 | 16.1 | 0.00 | 0.13 | 0.00 | 88 | 1001.5 |
| 20260509140504 | 12 | 296 | 4.8 | 16.1 | 0.00 | 0.13 | 0.00 | 87 | 1001.5 |
| 20260509140222 | 12 | 290 | 3.2 | 12.9 | 0.00 | 0.13 | 0.00 | 87 | 1001.5 |
| 20260509135504 | 12 | 298 | 3.2 | 19.3 | 0.00 | 0.13 | 0.00 | 87 | 1001.6 |
| 20260509135004 | 12 | 299 | 3.2 | 19.3 | 0.00 | 0.13 | 0.00 | 86 | 1001.6 |
| 20260509134504 | 12 | 296 | 3.2 | 19.3 | 0.00 | 0.13 | 0.00 | 86 | 1001.5 |
| 20260509134004 | 12 | 298 | 4.8 | 11.3 | 0.00 | 0.13 | 0.00 | 85 | 1001.5 |
| 20260509133504 | 12 | 297 | 4.8 | 14.5 | 0.00 | 0.13 | 0.00 | 85 | 1001.5 |
| 20260509133004 | 12 | 296 | 4.8 | 14.5 | 0.00 | 0.13 | 0.00 | 84 | 1001.5 |
| 20260509132505 | 12 | 297 | 4.8 | 22.5 | 0.00 | 0.13 | 0.00 | 84 | 1001.4 |
| 20260509132004 | 12 | 295 | 4.8 | 22.5 | 0.00 | 0.13 | 0.00 | 83 | 1001.4 |
| 20260509131504 | 12 | 299 | 4.8 | 12.9 | 0.00 | 0.13 | 0.00 | 83 | 1001.4 |
| 20260509131004 | 12 | 306 | 4.8 | 17.7 | 0.00 | 0.13 | 0.00 | 83 | 1001.4 |
| 20260509130504 | 12 | 303 | 6.4 | 20.9 | 0.00 | 0.13 | 0.00 | 83 | 1001.5 |
| 20260509130218 | 12 | 299 | 6.4 | 20.9 | 0.00 | 0.13 | 0.00 | 83 | 1001.5 |
| 20260509125504 | 12 | 297 | 4.8 | 14.5 | 0.00 | 0.13 | 0.00 | 83 | 1001.5 |
| 20260509125218 | 12 | 300 | 3.2 | 16.1 | 0.00 | 0.13 | 0.00 | 83 | 1001.5 |
| 20260509124504 | 12 | 299 | 4.8 | 16.1 | 0.00 | 0.13 | 0.00 | 83 | 1001.5 |
| 20260509124004 | 12 | 294 | 4.8 | 20.9 | 0.00 | 0.13 | 0.00 | 83 | 1001.4 |
| 20260509123504 | 12 | 293 | 4.8 | 20.9 | 0.00 | 0.13 | 0.00 | 83 | 1001.4 |
| 20260509123004 | 12 | 302 | 3.2 | 9.7 | 0.00 | 0.13 | 0.00 | 83 | 1001.4 |
| 20260509122504 | 12 | 301 | 3.2 | 11.3 | 0.00 | 0.13 | 0.00 | 83 | 1001.5 |
| 20260509122004 | 12 | 302 | 4.8 | 17.7 | 0.00 | 0.15 | 0.00 | 83 | 1001.5 |
| 20260509121504 | 12 | 300 | 4.8 | 17.7 | 0.00 | 0.18 | 0.00 | 83 | 1001.5 |
| 20260509121004 | 12 | 285 | 3.2 | 11.3 | 0.00 | 0.18 | 0.00 | 83 | 1001.5 |
| 20260509120504 | 12 | 288 | 4.8 | 12.9 | 0.00 | 0.20 | 0.00 | 83 | 1001.6 |
| 20260509120220 | 12 | 293 | 4.8 | 14.5 | 0.00 | 0.20 | 0.00 | 83 | 1001.6 |
| 20260509115504 | 12 | 310 | 3.2 | 14.5 | 0.00 | 0.28 | 0.23 | 83 | 1001.6 |
| 20260509115004 | 12 | 310 | 3.2 | 12.9 | 0.00 | 0.33 | 0.23 | 83 | 1001.6 |
| 20260509114504 | 12 | 298 | 3.2 | 12.9 | 0.00 | 0.36 | 0.23 | 84 | 1001.7 |
| 20260509114004 | 12 | 294 | 3.2 | 11.3 | 0.00 | 0.38 | 0.23 | 84 | 1001.7 |
| 20260509113504 | 12 | 298 | 3.2 | 11.3 | 0.00 | 0.38 | 0.23 | 84 | 1001.8 |
| 20260509113004 | 12 | 298 | 3.2 | 11.3 | 0.00 | 0.38 | 0.23 | 84 | 1001.9 |
| 20260509112504 | 12 | 291 | 3.2 | 11.3 | 0.00 | 0.38 | 0.23 | 84 | 1001.9 |
| 20260509112004 | 12 | 296 | 3.2 | 8.0 | 0.00 | 0.38 | 0.23 | 85 | 1001.9 |
| 20260509111719 | 12 | 304 | 1.6 | 6.4 | 0.00 | 0.38 | 0.23 | 85 | 1001.9 |
| 20260509111217 | 12 | 298 | 3.2 | 6.4 | 0.00 | 0.38 | 0.23 | 85 | 1001.9 |
| 20260509110504 | 12 | 282 | 1.6 | 11.3 | 0.00 | 0.38 | 0.23 | 85 | 1001.9 |
| 20260509110004 | 12 | 285 | 1.6 | 8.0 | 0.00 | 0.38 | 0.23 | 85 | 1001.9 |
| 20260509105504 | 12 | 296 | 1.6 | 8.0 | 0.00 | 0.38 | 0.23 | 85 | 1001.9 |
| 20260509105004 | 12 | 300 | 1.6 | 9.7 | 0.00 | 0.38 | 0.23 | 85 | 1001.9 |
| 20260509104504 | 12 | 302 | 1.6 | 9.7 | 0.00 | 0.38 | 0.23 | 85 | 1001.9 |
| 20260509104004 | 12 | 299 | 1.6 | 9.7 | 0.00 | 0.38 | 0.23 | 84 | 1001.9 |
| 20260509103504 | 12 | 293 | 1.6 | 8.0 | 0.00 | 0.38 | 0.23 | 84 | 1001.9 |
| 20260509103004 | 12 | 288 | 1.6 | 6.4 | 0.00 | 0.38 | 0.23 | 84 | 1001.9 |
| 20260509102504 | 12 | 273 | 1.6 | 6.4 | 0.00 | 0.38 | 0.23 | 83 | 1001.9 |
| 20260509102004 | 12 | 279 | 1.6 | 6.4 | 0.00 | 0.38 | 0.23 | 83 | 1001.9 |
| 20260509101504 | 12 | 287 | 1.6 | 6.4 | 0.00 | 0.43 | 0.23 | 82 | 1002.0 |
| 20260509101004 | 12 | 298 | 1.6 | 6.4 | 0.00 | 0.43 | 0.23 | 82 | 1002.0 |
| 20260509100504 | 12 | 298 | 3.2 | 12.9 | 0.00 | 0.43 | 0.23 | 82 | 1002.0 |
| 20260509100005 | 12 | 295 | 4.8 | 12.9 | 0.00 | 0.43 | 0.23 | 81 | 1002.1 |
| 20260509095504 | 12 | 299 | 4.8 | 19.3 | 0.00 | 0.48 | 0.23 | 81 | 1002.1 |
| 20260509095004 | 12 | 293 | 6.4 | 19.3 | 0.00 | 0.51 | 0.23 | 81 | 1002.1 |
| 20260509094718 | 12 | 287 | 4.8 | 14.5 | 0.00 | 0.51 | 0.23 | 81 | 1002.0 |
| 20260509094219 | 12 | 284 | 4.8 | 16.1 | 0.00 | 0.51 | 0.23 | 81 | 1002.0 |
| 20260509093718 | 12 | 291 | 4.8 | 16.1 | 0.00 | 0.51 | 0.23 | 81 | 1001.9 |
| 20260509093219 | 12 | 295 | 4.8 | 12.9 | 0.00 | 0.51 | 0.23 | 81 | 1001.9 |
| 20260509092504 | 12 | 282 | 4.8 | 17.7 | 0.00 | 0.51 | 0.23 | 81 | 1001.9 |
| 20260509092004 | 12 | 281 | 6.4 | 17.7 | 0.00 | 0.51 | 0.23 | 81 | 1001.9 |
| 20260509091504 | 12 | 280 | 6.4 | 17.7 | 0.00 | 0.51 | 0.23 | 81 | 1001.8 |
| 20260509091004 | 12 | 281 | 6.4 | 14.5 | 0.00 | 0.51 | 0.23 | 81 | 1001.8 |
| 20260509090504 | 12 | 281 | 4.8 | 14.5 | 0.00 | 0.51 | 0.23 | 81 | 1001.7 |
| 20260509090219 | 12 | 281 | 4.8 | 14.5 | 0.00 | 0.51 | 0.23 | 81 | 1001.7 |
| 20260509085504 | 12 | 276 | 6.4 | 14.5 | 0.00 | 0.51 | 0.23 | 81 | 1001.6 |
| 20260509085004 | 12 | 274 | 6.4 | 14.5 | 0.00 | 0.51 | 0.23 | 80 | 1001.5 |
| 20260509084504 | 13 | 274 | 6.4 | 17.7 | 0.00 | 0.51 | 0.23 | 80 | 1001.4 |
| 20260509084004 | 13 | 275 | 8.0 | 20.9 | 0.00 | 0.51 | 0.23 | 79 | 1001.3 |
| 20260509083504 | 13 | 286 | 8.0 | 20.9 | 0.00 | 0.51 | 0.23 | 78 | 1001.2 |
| 20260509083005 | 13 | 291 | 6.4 | 25.7 | 0.00 | 0.51 | 0.23 | 78 | 1001.1 |
| 20260509082504 | 13 | 284 | 8.0 | 25.7 | 0.00 | 0.51 | 0.23 | 78 | 1001.1 |
| 20260509082004 | 13 | 288 | 6.4 | 25.7 | 0.00 | 0.51 | 0.23 | 78 | 1001.1 |
| 20260509081504 | 13 | 290 | 6.4 | 25.7 | 0.00 | 0.51 | 0.23 | 78 | 1001.2 |
| 20260509081004 | 13 | 287 | 6.4 | 25.7 | 0.00 | 0.51 | 0.23 | 78 | 1001.2 |
| 20260509080504 | 13 | 291 | 6.4 | 19.3 | 0.00 | 0.51 | 0.23 | 79 | 1001.3 |
| 20260509080004 | 13 | 289 | 6.4 | 16.1 | 0.00 | 0.51 | 0.23 | 80 | 1001.4 |
| 20260509075504 | 13 | 289 | 6.4 | 19.3 | 0.00 | 0.51 | 0.23 | 79 | 1001.4 |
| 20260509075004 | 13 | 293 | 8.0 | 19.3 | 0.00 | 0.51 | 0.23 | 79 | 1001.4 |
| 20260509074504 | 13 | 289 | 6.4 | 20.9 | 0.00 | 0.51 | 0.23 | 80 | 1001.4 |
| 20260509074218 | 13 | 289 | 6.4 | 20.9 | 0.00 | 0.51 | 0.23 | 80 | 1001.4 |
| 20260509073504 | 13 | 290 | 8.0 | 22.5 | 0.00 | 0.51 | 0.23 | 79 | 1001.4 |
| 20260509073218 | 13 | 288 | 8.0 | 22.5 | 0.00 | 0.51 | 0.23 | 79 | 1001.5 |
| 20260509072504 | 13 | 287 | 8.0 | 20.9 | 0.00 | 0.51 | 0.23 | 80 | 1001.5 |
| 20260509072004 | 13 | 287 | 8.0 | 20.9 | 0.00 | 0.51 | 0.23 | 80 | 1001.6 |
| 20260509071504 | 13 | 282 | 8.0 | 20.9 | 0.00 | 0.51 | 0.23 | 80 | 1001.6 |
| 20260509071004 | 13 | 275 | 9.7 | 20.9 | 0.00 | 0.51 | 0.23 | 80 | 1001.6 |
| 20260509070504 | 13 | 275 | 9.7 | 22.5 | 0.00 | 0.51 | 0.23 | 80 | 1001.6 |
| 20260509070040 | 13 | 285 | 9.7 | 22.5 | 0.00 | 0.51 | 0.23 | 79 | 1001.6 |
| 20260509065504 | 13 | 287 | 8.0 | 29.0 | 0.00 | 0.51 | 0.23 | 79 | 1001.7 |
| 20260509065004 | 13 | 288 | 8.0 | 29.0 | 0.00 | 0.51 | 0.23 | 79 | 1001.7 |
| 20260509064504 | 14 | 296 | 8.0 | 20.9 | 0.00 | 0.51 | 0.23 | 79 | 1001.8 |
| 20260509064004 | 14 | 290 | 8.0 | 22.5 | 0.00 | 0.51 | 0.23 | 79 | 1001.7 |
| 20260509063504 | 14 | 289 | 11.3 | 32.2 | 0.00 | 0.51 | 0.23 | 78 | 1001.7 |
| 20260509063218 | 14 | 293 | 12.9 | 32.2 | 0.00 | 0.51 | 0.23 | 78 | 1001.7 |
| 20260509062719 | 14 | 303 | 11.3 | 32.2 | 0.00 | 0.51 | 0.23 | 78 | 1001.7 |
| 20260509062004 | 15 | 309 | 14.5 | 30.6 | 0.00 | 0.51 | 0.23 | 79 | 1001.7 |
| 20260509061719 | 15 | 309 | 12.9 | 30.6 | 0.00 | 0.51 | 0.23 | 79 | 1001.6 |
| 20260509061004 | 15 | 306 | 11.3 | 30.6 | 0.00 | 0.51 | 0.23 | 81 | 1001.6 |
| 20260509060718 | 15 | 305 | 11.3 | 24.1 | 0.00 | 0.51 | 0.23 | 82 | 1001.6 |
| 20260509060005 | 15 | 301 | 11.3 | 24.1 | 0.00 | 0.51 | 0.23 | 83 | 1001.6 |
| 20260509055718 | 15 | 300 | 11.3 | 24.1 | 0.00 | 0.51 | 0.23 | 83 | 1001.5 |
| 20260509055004 | 15 | 310 | 11.3 | 22.5 | 0.00 | 0.51 | 0.23 | 82 | 1001.5 |
| 20260509054505 | 15 | 313 | 9.7 | 27.4 | 0.00 | 0.51 | 0.23 | 82 | 1001.5 |
| 20260509054004 | 15 | 313 | 9.7 | 29.0 | 0.00 | 0.51 | 0.23 | 83 | 1001.5 |
| 20260509053504 | 15 | 311 | 9.7 | 29.0 | 0.00 | 0.51 | 0.23 | 83 | 1001.5 |
| 20260509053004 | 15 | 310 | 9.7 | 25.7 | 0.00 | 0.51 | 0.23 | 84 | 1001.5 |
| 20260509052504 | 15 | 305 | 9.7 | 22.5 | 0.00 | 0.51 | 0.23 | 84 | 1001.4 |
| 20260509052219 | 15 | 305 | 11.3 | 25.7 | 0.00 | 0.51 | 0.23 | 84 | 1001.3 |
| 20260509051504 | 15 | 313 | 11.3 | 25.7 | 0.00 | 0.51 | 0.23 | 85 | 1001.3 |
| 20260509051219 | 15 | 311 | 9.7 | 24.1 | 0.00 | 0.51 | 0.23 | 85 | 1001.3 |
| 20260509050504 | 15 | 303 | 6.4 | 24.1 | 0.00 | 0.51 | 0.23 | 86 | 1001.2 |
| 20260509050004 | 15 | 304 | 8.0 | 19.3 | 0.03 | 0.51 | 0.23 | 86 | 1001.2 |
| 20260509045504 | 15 | 304 | 8.0 | 19.3 | 0.03 | 0.51 | 0.23 | 86 | 1001.2 |
| 20260509045004 | 15 | 308 | 8.0 | 27.4 | 0.03 | 0.51 | 0.23 | 86 | 1001.2 |
| 20260509044504 | 15 | 312 | 9.7 | 30.6 | 0.03 | 0.51 | 0.23 | 86 | 1001.2 |
| 20260509044004 | 15 | 310 | 9.7 | 30.6 | 0.10 | 0.51 | 0.23 | 86 | 1001.2 |
| 20260509043504 | 15 | 307 | 8.0 | 24.1 | 0.10 | 0.51 | 0.23 | 86 | 1001.2 |
| 20260509043219 | 15 | 306 | 9.7 | 22.5 | 0.10 | 0.51 | 0.23 | 86 | 1001.2 |
| 20260509042504 | 15 | 314 | 11.3 | 40.2 | 0.10 | 0.51 | 0.23 | 85 | 1001.1 |
| 20260509042219 | 15 | 315 | 11.3 | 40.2 | 0.10 | 0.51 | 0.23 | 85 | 1001.1 |
| 20260509041504 | 15 | 309 | 11.3 | 27.4 | 0.10 | 0.51 | 0.23 | 87 | 1001.1 |
| 20260509041004 | 15 | 308 | 12.9 | 33.8 | 0.10 | 0.51 | 0.23 | 87 | 1001.2 |
| 20260509040504 | 15 | 305 | 12.9 | 33.8 | 0.10 | 0.51 | 0.23 | 87 | 1001.3 |
| 20260509040005 | 15 | 305 | 11.3 | 32.2 | 0.05 | 0.48 | 0.20 | 89 | 1001.4 |
| 20260509035504 | 15 | 300 | 12.9 | 32.2 | 0.05 | 0.48 | 0.20 | 89 | 1001.5 |
| 20260509035004 | 15 | 292 | 14.5 | 32.2 | 0.05 | 0.48 | 0.20 | 88 | 1001.4 |
| 20260509034504 | 15 | 289 | 14.5 | 38.6 | 0.05 | 0.48 | 0.20 | 88 | 1001.3 |
| 20260509034004 | 15 | 284 | 12.9 | 38.6 | 0.00 | 0.43 | 0.15 | 84 | 1001.2 |
| 20260509033504 | 16 | 285 | 14.5 | 32.2 | 0.00 | 0.43 | 0.15 | 82 | 1001.1 |
| 20260509033005 | 16 | 285 | 16.1 | 41.8 | 0.00 | 0.43 | 0.15 | 80 | 1001.1 |
| 20260509032504 | 16 | 285 | 14.5 | 41.8 | 0.00 | 0.43 | 0.15 | 79 | 1001.0 |
| 20260509032004 | 17 | 298 | 14.5 | 33.8 | 0.00 | 0.43 | 0.15 | 76 | 1001.0 |
| 20260509031504 | 17 | 297 | 14.5 | 40.2 | 0.00 | 0.43 | 0.15 | 80 | 1001.0 |
| 20260509031004 | 16 | 293 | 14.5 | 40.2 | 0.00 | 0.43 | 0.15 | 80 | 1000.9 |
| 20260509030504 | 16 | 296 | 14.5 | 35.4 | 0.00 | 0.43 | 0.15 | 80 | 1000.8 |
| 20260509030004 | 16 | 302 | 14.5 | 33.8 | 0.00 | 0.43 | 0.15 | 81 | 1000.7 |
| 20260509025504 | 17 | 301 | 12.9 | 33.8 | 0.00 | 0.43 | 0.15 | 79 | 1000.6 |
| 20260509025004 | 17 | 311 | 11.3 | 37.0 | 0.00 | 0.43 | 0.15 | 78 | 1000.6 |
| 20260509024504 | 17 | 316 | 12.9 | 46.7 | 0.00 | 0.43 | 0.15 | 78 | 1000.6 |
| 20260509024004 | 17 | 307 | 14.5 | 46.7 | 0.00 | 0.43 | 0.15 | 78 | 1000.6 |
| 20260509023504 | 17 | 303 | 14.5 | 41.8 | 0.00 | 0.43 | 0.15 | 78 | 1000.6 |
| 20260509023004 | 17 | 302 | 11.3 | 35.4 | 0.00 | 0.43 | 0.15 | 79 | 1000.6 |
| 20260509022504 | 16 | 298 | 11.3 | 29.0 | 0.00 | 0.43 | 0.15 | 83 | 1000.7 |
| 20260509022004 | 16 | 297 | 11.3 | 30.6 | 0.00 | 0.43 | 0.15 | 84 | 1000.7 |
| 20260509021504 | 16 | 297 | 11.3 | 35.4 | 0.00 | 0.43 | 0.15 | 83 | 1000.7 |